#timestamp,LO_Frequency,Hit 
1500620415.1,286047000.7,N
1500620416.0,286047000.7,N
1500620435.8,286046998.4,N
1500620455.6,286046998.7,N
1500620475.5,286046998.9,N
1500620495.3,286046999.3,N
1500620515.1,286046999.1,N
1500620535.9,286046996.7,N
1500620555.7,286046997.2,N
1500620575.6,286046997.0,N
1500620595.4,286046997.9,N
1500620615.2,286046995.1,N
1500620635.1,286046995.2,N
1500620636.0,286046995.2,N
1500620655.8,286046996.1,N
1500620675.7,286046996.1,N
1500620695.5,286046996.0,N
1500620715.3,286046996.2,N
1500620735.2,286046996.0,N
1500620755.0,286046994.6,N
1500620755.9,286046994.6,N
1500620775.7,286046994.3,N
1500620795.6,286046994.7,N
1500620815.4,286046991.7,N
1500620835.3,286046992.4,N
1500620855.1,286046992.7,N
1500620875.8,286046993.0,N
1500620895.7,286046990.1,N
1500620915.5,286046993.2,N
1500620935.4,286046990.6,N
1500620955.2,286046990.8,N
1500620975.0,286046990.7,N
1500620975.9,286046990.7,N
1500620995.8,286046990.9,N
1500621015.6,286046991.4,N
1500621035.5,286046991.6,N
1500621055.3,286046991.6,N
1500621075.1,286046990.7,N
1500621095.9,286046993.2,N
1500621115.7,286046990.2,N
1500621135.6,286046990.8,N
1500621155.4,286046989.4,N
1500621175.2,286046991.6,N
1500621195.1,286046991.1,N
1500621196.0,286046991.1,N
1500621215.8,286046991.1,N
1500621235.6,286046988.8,N
1500621255.5,286046991.1,N
1500621275.3,286046989.4,N
1500621295.2,286046989.7,N
1500621315.0,286046988.9,N
1500621315.9,286046988.9,N
1500621335.8,286046989.7,N
1500621355.6,286046989.8,N
1500621375.4,286046989.3,N
1500621395.3,286046989.7,N
1500621415.1,286046988.6,N
1500621435.8,286046988.9,N
1500621455.7,286046989.0,N
1500621475.5,286046989.7,N
1500621495.4,286046987.5,N
1500621515.2,286046987.2,N
1500621535.0,286046988.3,N
1500621535.9,286046988.3,N
1500621555.8,286046988.0,N
1500621575.6,286046987.5,N
1500621595.4,286046988.4,N
1500621615.3,286046987.9,N
1500621635.1,286046988.4,N
1500621655.9,286046985.7,N
1500621675.7,286046988.3,N
1500621695.5,286046988.2,N
1500621715.4,286046988.0,N
1500621735.2,286046987.8,N
1500621755.1,286046988.1,N
1500621756.0,286046988.1,N
1500621775.8,286046988.4,N
1500621795.6,286046988.4,N
1500621815.5,286046985.9,N
1500621835.3,286046985.5,N
1500621855.2,286046985.9,N
1500621875.9,286046984.0,N
1500621895.7,286046985.6,N
1500621915.6,286046986.3,N
1500621935.4,286046986.3,N
1500621955.2,286046988.4,N
1500621975.1,286046985.4,N
1500621976.0,286046985.4,N
1500621995.8,286046986.1,N
1500622015.7,286046983.8,N
1500622035.5,286046985.9,N
1500622055.3,286046986.1,N
1500622075.2,286046983.8,N
1500622095.0,286046982.2,N
1500622095.9,286046982.2,N
1500622115.7,286046984.7,N
1500622135.6,286046984.4,N
1500622155.4,286046986.7,N
1500622175.3,286046986.4,N
1500622195.1,286046986.5,N
1500622215.8,286046985.6,N
1500622235.7,286046986.3,N
1500622255.5,286046986.6,N
1500622275.4,286046986.3,N
1500622295.2,286046986.5,N
1500622315.0,286046985.8,N
1500622315.9,286046985.8,N
1500622335.8,286046985.7,N
1500622355.6,286046988.0,N
1500622375.4,286046988.0,N
1500622395.3,286046987.7,N
1500622415.1,286046989.4,N
1500622435.9,286046988.5,N
1500622455.7,286046988.7,N
1500622475.5,286046991.5,N
1500622495.4,286046991.5,N
1500622515.2,286046988.5,N
1500622535.0,286046989.0,N
1500622536.0,286046989.0,N
1500622555.8,286046991.5,N
1500622575.6,286046991.4,N
1500622595.5,286046990.8,N
1500622615.3,286046988.6,N
1500622635.1,286046991.4,N
1500622655.9,286046988.7,N
1500622675.7,286046989.4,N
1500622695.6,286046991.2,N
1500622715.4,286046991.4,N
1500622735.2,286046990.8,N
1500622755.1,286046990.3,N
1500622756.0,286046990.3,N
1500622775.8,286046990.8,N
1500622795.7,286046990.6,N
1500622815.5,286046990.3,N
1500622835.3,286046993.2,N
1500622855.2,286046993.1,N
1500622875.0,286046991.9,N
1500622875.9,286046991.9,N
1500622895.7,286046992.4,N
1500622915.6,286046993.1,N
1500622935.4,286046990.9,N
1500622955.3,286046991.6,N
1500622975.1,286046990.7,N
1500622976.0,286046990.7,N
1500622995.9,286046991.1,N
1500623015.7,286046991.4,N
1500623035.5,286046991.5,N
1500623055.4,286046991.0,N
1500623075.2,286046990.5,N
1500623095.0,286046992.7,N
1500623096.0,286046992.7,N
1500623115.8,286046991.9,N
1500623135.6,286046993.5,N
1500623155.5,286046991.9,N
1500623175.3,286046993.5,N
1500623195.1,286046996.3,N
1500623215.9,286046994.5,N
1500623235.7,286046995.1,N
1500623255.6,286046996.1,N
1500623275.4,286046997.2,N
1500623295.2,286046997.1,N
1500623315.1,286046998.0,N
1500623316.0,286046998.0,N
1500623335.8,286046995.1,N
1500623355.6,286046994.9,N
1500623375.5,286046999.5,N
1500623395.3,286046996.7,N
1500623415.2,286046999.4,N
1500623435.9,286046996.7,N
1500623455.7,286046999.6,N
1500623475.6,286046995.8,N
1500623495.4,286046996.7,N
1500623515.3,286046999.2,N
1500623535.1,286046999.0,N
1500623536.0,286047011.9,N
1500623555.8,286046996.7,N
1500623575.7,286046998.6,N
1500623595.5,286046998.5,N
1500623615.4,286046999.6,N
1500623635.2,286046999.5,N
1500623655.0,286046998.5,N
1500623655.9,286046998.5,N
1500623675.8,286046999.6,N
1500623695.6,286046999.4,N
1500623715.4,286047000.1,N
1500623735.3,286047000.5,N
1500623755.1,286047000.3,N
1500623775.9,286046998.2,N
1500623795.7,286047000.3,N
1500623815.5,286047001.0,N
1500623835.4,286046999.8,N
1500623855.2,286047003.2,N
1500623875.1,286047001.8,N
1500623876.0,286047001.8,N
1500623895.8,286047002.0,N
1500623915.6,286047003.1,N
1500623935.5,286047003.3,N
1500623955.3,286047002.3,N
1500623975.1,286047002.5,N
1500623995.9,286047002.3,N
